contact:dominique.lefevre@mio.osupytheas.fr, maurice.libes@osupytheas.fr, didier.mallarino@osupytheas.fr
Project:EMSO http://www.emso-fr.org/EMSO-France
Depth: 2436.0 m
Title:EMSO Ligure Ouest : Data MII capteur MICROCAT
DateTime_Computer,Latitude,Longitude,Temperature,Conductivity,Pressure,DateTime_Instrument
DateTime_Computer,Latitude,Longitude,degC,S m-1,dbar,DateTime_Instrument
2020-10-25T00:01:08Z,42.805,6.029,13.2987,4.59995,2470.18,2020-10-25T02:02:03Z
2020-10-25T00:04:11Z,42.805,6.029,13.2983,4.59995,2470.133,2020-10-25T02:05:06Z
2020-10-25T00:07:14Z,42.805,6.029,13.2983,4.59991,2470.156,2020-10-25T02:08:09Z
2020-10-25T00:10:17Z,42.805,6.029,13.2984,4.59991,2470.171,2020-10-25T02:11:12Z
2020-10-25T00:13:20Z,42.805,6.029,13.2983,4.59996,2470.156,2020-10-25T02:14:15Z
2020-10-25T00:16:23Z,42.805,6.029,13.2991,4.60006,2470.133,2020-10-25T02:17:18Z
2020-10-25T00:19:26Z,42.805,6.029,13.2983,4.59995,2470.156,2020-10-25T02:20:21Z
2020-10-25T00:22:30Z,42.805,6.029,13.2987,4.59994,2470.133,2020-10-25T02:23:24Z
2020-10-25T00:25:33Z,42.805,6.029,13.2982,4.59992,2470.156,2020-10-25T02:26:28Z
2020-10-25T00:28:36Z,42.805,6.029,13.2981,4.59989,2470.171,2020-10-25T02:29:31Z
2020-10-25T00:31:39Z,42.805,6.029,13.2986,4.59992,2470.18,2020-10-25T02:32:34Z
2020-10-25T00:34:42Z,42.805,6.029,13.2986,4.59991,2470.18,2020-10-25T02:35:37Z
2020-10-25T00:37:45Z,42.805,6.029,13.2984,4.59990,2470.147,2020-10-25T02:38:40Z
2020-10-25T00:40:48Z,42.805,6.029,13.2983,4.59994,2470.18,2020-10-25T02:41:43Z
2020-10-25T00:43:51Z,42.805,6.029,13.2989,4.60013,2470.18,2020-10-25T02:44:46Z
2020-10-25T00:46:55Z,42.805,6.029,13.2984,4.59997,2470.18,2020-10-25T02:47:49Z
2020-10-25T00:49:58Z,42.805,6.029,13.2989,4.60004,2470.156,2020-10-25T02:50:53Z
2020-10-25T00:53:01Z,42.805,6.029,13.2986,4.60006,2470.194,2020-10-25T02:53:56Z
2020-10-25T00:56:04Z,42.805,6.029,13.2984,4.59992,2470.156,2020-10-25T02:56:59Z
2020-10-25T00:59:07Z,42.805,6.029,13.2983,4.59990,2470.171,2020-10-25T03:00:02Z
2020-10-25T01:02:10Z,42.805,6.029,13.2982,4.59991,2470.18,2020-10-25T03:03:05Z
2020-10-25T01:05:13Z,42.805,6.029,13.2981,4.59993,2470.143,2020-10-25T03:06:08Z
2020-10-25T01:08:16Z,42.805,6.029,13.2984,4.59992,2470.133,2020-10-25T03:09:11Z
2020-10-25T01:11:20Z,42.805,6.029,13.2987,4.59993,2470.194,2020-10-25T03:12:14Z
2020-10-25T01:14:23Z,42.805,6.029,13.2988,4.59994,2470.18,2020-10-25T03:15:17Z
2020-10-25T01:17:26Z,42.805,6.029,13.2984,4.59998,2470.194,2020-10-25T03:18:21Z
2020-10-25T01:20:29Z,42.805,6.029,13.2982,4.59993,2470.171,2020-10-25T03:21:24Z
2020-10-25T01:23:32Z,42.805,6.029,13.2978,4.59988,2470.171,2020-10-25T03:24:27Z
2020-10-25T01:26:35Z,42.805,6.029,13.2984,4.59992,2470.133,2020-10-25T03:27:30Z
2020-10-25T01:29:38Z,42.805,6.029,13.2983,4.59995,2470.217,2020-10-25T03:30:33Z
2020-10-25T01:32:41Z,42.805,6.029,13.2981,4.59995,2470.156,2020-10-25T03:33:36Z
2020-10-25T01:35:45Z,42.805,6.029,13.2984,4.59998,2470.156,2020-10-25T03:36:39Z
2020-10-25T01:38:48Z,42.805,6.029,13.2983,4.59991,2470.194,2020-10-25T03:39:42Z
2020-10-25T01:41:51Z,42.805,6.029,13.2982,4.59992,2470.156,2020-10-25T03:42:46Z
2020-10-25T01:44:54Z,42.805,6.029,13.2986,4.59995,2470.156,2020-10-25T03:45:49Z
2020-10-25T01:47:57Z,42.805,6.029,13.2990,4.60006,2470.171,2020-10-25T03:48:52Z
2020-10-25T01:51:00Z,42.805,6.029,13.2984,4.59992,2470.203,2020-10-25T03:51:55Z
2020-10-25T01:54:03Z,42.805,6.029,13.2982,4.59992,2470.194,2020-10-25T03:54:58Z
2020-10-25T01:57:06Z,42.805,6.029,13.2984,4.59991,2470.156,2020-10-25T03:58:01Z
2020-10-25T02:00:10Z,42.805,6.029,13.2982,4.59990,2470.156,2020-10-25T04:01:04Z
2020-10-25T02:03:13Z,42.805,6.029,13.2980,4.60004,2470.171,2020-10-25T04:04:07Z
2020-10-25T02:06:16Z,42.805,6.029,13.2982,4.60007,2470.171,2020-10-25T04:07:11Z
2020-10-25T02:09:19Z,42.805,6.029,13.2985,4.60003,2470.18,2020-10-25T04:10:14Z
2020-10-25T02:12:22Z,42.805,6.029,13.2983,4.59990,2470.194,2020-10-25T04:13:17Z
2020-10-25T02:15:25Z,42.805,6.029,13.2978,4.59988,2470.18,2020-10-25T04:16:20Z
2020-10-25T02:18:28Z,42.805,6.029,13.2982,4.59990,2470.18,2020-10-25T04:19:23Z
2020-10-25T02:21:31Z,42.805,6.029,13.2985,4.59993,2470.18,2020-10-25T04:22:26Z
2020-10-25T02:24:35Z,42.805,6.029,13.2979,4.60001,2470.194,2020-10-25T04:25:29Z
2020-10-25T02:27:38Z,42.805,6.029,13.2983,4.59996,2470.171,2020-10-25T04:28:32Z
2020-10-25T02:30:41Z,42.805,6.029,13.2983,4.59992,2470.194,2020-10-25T04:31:36Z
2020-10-25T02:33:44Z,42.805,6.029,13.2983,4.59997,2470.194,2020-10-25T04:34:39Z
2020-10-25T02:36:47Z,42.805,6.029,13.2986,4.59991,2470.143,2020-10-25T04:37:42Z
2020-10-25T02:39:50Z,42.805,6.029,13.2982,4.59991,2470.156,2020-10-25T04:40:45Z
2020-10-25T02:42:53Z,42.805,6.029,13.2982,4.59988,2470.217,2020-10-25T04:43:48Z
2020-10-25T02:45:56Z,42.805,6.029,13.2987,4.59991,2470.18,2020-10-25T04:46:51Z
2020-10-25T02:48:59Z,42.805,6.029,13.2982,4.59988,2470.194,2020-10-25T04:49:54Z
2020-10-25T02:52:03Z,42.805,6.029,13.2983,4.59990,2470.18,2020-10-25T04:52:57Z
2020-10-25T02:55:06Z,42.805,6.029,13.2986,4.59991,2470.194,2020-10-25T04:56:01Z
2020-10-25T02:58:09Z,42.805,6.029,13.2982,4.59994,2470.18,2020-10-25T04:59:04Z
2020-10-25T03:01:12Z,42.805,6.029,13.2986,4.59987,2470.217,2020-10-25T05:02:07Z
2020-10-25T03:04:15Z,42.805,6.029,13.2982,4.59987,2470.18,2020-10-25T05:05:10Z
2020-10-25T03:07:18Z,42.805,6.029,13.2981,4.59989,2470.18,2020-10-25T05:08:13Z
2020-10-25T03:10:21Z,42.805,6.029,13.2982,4.59991,2470.156,2020-10-25T05:11:16Z
2020-10-25T03:13:24Z,42.805,6.029,13.2983,4.59991,2470.156,2020-10-25T05:14:19Z
2020-10-25T03:16:28Z,42.805,6.029,13.2984,4.59994,2470.156,2020-10-25T05:17:22Z
2020-10-25T03:19:31Z,42.805,6.029,13.2978,4.59996,2470.194,2020-10-25T05:20:26Z
2020-10-25T03:22:34Z,42.805,6.029,13.2983,4.59991,2470.194,2020-10-25T05:23:29Z
2020-10-25T03:25:37Z,42.805,6.029,13.2983,4.59989,2470.18,2020-10-25T05:26:32Z
2020-10-25T03:28:40Z,42.805,6.029,13.2983,4.59992,2470.156,2020-10-25T05:29:35Z
2020-10-25T03:31:43Z,42.805,6.029,13.2984,4.59996,2470.194,2020-10-25T05:32:38Z
2020-10-25T03:34:46Z,42.805,6.029,13.2982,4.59992,2470.156,2020-10-25T05:35:41Z
2020-10-25T03:37:49Z,42.805,6.029,13.2984,4.59995,2470.156,2020-10-25T05:38:44Z
2020-10-25T03:40:53Z,42.805,6.029,13.2984,4.59998,2470.194,2020-10-25T05:41:47Z
2020-10-25T03:43:56Z,42.805,6.029,13.2981,4.59999,2470.18,2020-10-25T05:44:51Z
2020-10-25T03:46:59Z,42.805,6.029,13.2983,4.59996,2470.194,2020-10-25T05:47:54Z
2020-10-25T03:50:02Z,42.805,6.029,13.2983,4.60011,2470.171,2020-10-25T05:50:57Z
2020-10-25T03:53:05Z,42.805,6.029,13.2989,4.59994,2470.194,2020-10-25T05:54:00Z
2020-10-25T03:56:08Z,42.805,6.029,13.2983,4.59987,2470.171,2020-10-25T05:57:03Z
2020-10-25T03:59:11Z,42.805,6.029,13.2983,4.59994,2470.194,2020-10-25T06:00:06Z
2020-10-25T04:02:14Z,42.805,6.029,13.2987,4.59998,2470.18,2020-10-25T06:03:09Z
2020-10-25T04:05:18Z,42.805,6.029,13.2983,4.59998,2470.203,2020-10-25T06:06:12Z
2020-10-25T04:08:21Z,42.805,6.029,13.2983,4.59992,2470.194,2020-10-25T06:09:16Z
2020-10-25T04:11:24Z,42.805,6.029,13.2982,4.59989,2470.18,2020-10-25T06:12:19Z
2020-10-25T04:14:27Z,42.805,6.029,13.2985,4.59991,2470.194,2020-10-25T06:15:22Z
2020-10-25T04:17:30Z,42.805,6.029,13.2978,4.59988,2470.156,2020-10-25T06:18:25Z
2020-10-25T04:20:33Z,42.805,6.029,13.2981,4.59994,2470.18,2020-10-25T06:21:28Z
2020-10-25T04:23:36Z,42.805,6.029,13.2986,4.59994,2470.156,2020-10-25T06:24:31Z
2020-10-25T04:26:39Z,42.805,6.029,13.2988,4.59991,2470.18,2020-10-25T06:27:34Z
2020-10-25T04:29:43Z,42.805,6.029,13.2982,4.59997,2470.156,2020-10-25T06:30:37Z
2020-10-25T04:32:46Z,42.805,6.029,13.2990,4.60009,2470.18,2020-10-25T06:33:41Z
2020-10-25T04:35:49Z,42.805,6.029,13.2986,4.59994,2470.194,2020-10-25T06:36:44Z
2020-10-25T04:38:52Z,42.805,6.029,13.2981,4.60010,2470.18,2020-10-25T06:39:47Z
2020-10-25T04:41:55Z,42.805,6.029,13.2986,4.59999,2470.156,2020-10-25T06:42:50Z
2020-10-25T04:44:58Z,42.805,6.029,13.2986,4.59995,2470.156,2020-10-25T06:45:53Z
2020-10-25T04:48:01Z,42.805,6.029,13.2980,4.60002,2470.156,2020-10-25T06:48:56Z
2020-10-25T04:51:04Z,42.805,6.029,13.2988,4.59996,2470.166,2020-10-25T06:51:59Z
2020-10-25T04:54:08Z,42.805,6.029,13.2996,4.60010,2470.217,2020-10-25T06:55:02Z
2020-10-25T04:57:11Z,42.805,6.029,13.2983,4.59991,2470.156,2020-10-25T06:58:05Z
2020-10-25T05:00:14Z,42.805,6.029,13.2986,4.59993,2470.194,2020-10-25T07:01:09Z
2020-10-25T05:03:17Z,42.805,6.029,13.2983,4.60010,2470.203,2020-10-25T07:04:12Z
2020-10-25T05:06:20Z,42.805,6.029,13.2986,4.60007,2470.194,2020-10-25T07:07:15Z
2020-10-25T05:09:23Z,42.805,6.029,13.2991,4.59999,2470.194,2020-10-25T07:10:18Z
2020-10-25T05:12:26Z,42.805,6.029,13.2983,4.60011,2470.156,2020-10-25T07:13:21Z
2020-10-25T05:15:29Z,42.805,6.029,13.2982,4.59999,2470.18,2020-10-25T07:16:24Z
2020-10-25T05:18:33Z,42.805,6.029,13.2984,4.59994,2470.203,2020-10-25T07:19:27Z
2020-10-25T05:21:36Z,42.805,6.029,13.2986,4.60010,2470.18,2020-10-25T07:22:30Z
2020-10-25T05:24:39Z,42.805,6.029,13.2982,4.60006,2470.156,2020-10-25T07:25:34Z
2020-10-25T05:27:42Z,42.805,6.029,13.2987,4.59999,2470.133,2020-10-25T07:28:37Z
2020-10-25T05:30:45Z,42.805,6.029,13.2986,4.59999,2470.156,2020-10-25T07:31:40Z
2020-10-25T05:33:48Z,42.805,6.029,13.2980,4.59991,2470.171,2020-10-25T07:34:43Z
2020-10-25T05:36:51Z,42.805,6.029,13.2986,4.59999,2470.156,2020-10-25T07:37:46Z
2020-10-25T05:39:54Z,42.805,6.029,13.2985,4.59989,2470.203,2020-10-25T07:40:49Z
2020-10-25T05:42:57Z,42.805,6.029,13.2988,4.60006,2470.194,2020-10-25T07:43:52Z
2020-10-25T05:46:01Z,42.805,6.029,13.2990,4.60013,2470.194,2020-10-25T07:46:55Z
2020-10-25T05:49:04Z,42.805,6.029,13.2989,4.60009,2470.171,2020-10-25T07:49:59Z
2020-10-25T05:52:07Z,42.805,6.029,13.2991,4.60003,2470.18,2020-10-25T07:53:02Z
2020-10-25T05:55:10Z,42.805,6.029,13.2988,4.59999,2470.156,2020-10-25T07:56:05Z
2020-10-25T05:58:13Z,42.805,6.029,13.2983,4.59998,2470.18,2020-10-25T07:59:08Z
2020-10-25T06:01:16Z,42.805,6.029,13.2980,4.59995,2470.156,2020-10-25T08:02:11Z
2020-10-25T06:04:19Z,42.805,6.029,13.2986,4.59991,2470.156,2020-10-25T08:05:14Z
2020-10-25T06:07:22Z,42.805,6.029,13.2984,4.60015,2470.156,2020-10-25T08:08:17Z
2020-10-25T06:10:26Z,42.805,6.029,13.2982,4.60003,2470.18,2020-10-25T08:11:20Z
2020-10-25T06:13:29Z,42.805,6.029,13.2994,4.60003,2470.194,2020-10-25T08:14:24Z
2020-10-25T06:16:32Z,42.805,6.029,13.2993,4.60017,2470.194,2020-10-25T08:17:27Z
2020-10-25T06:19:35Z,42.805,6.029,13.2989,4.60015,2470.18,2020-10-25T08:20:30Z
2020-10-25T06:22:38Z,42.805,6.029,13.2981,4.59999,2470.156,2020-10-25T08:23:33Z
2020-10-25T06:25:41Z,42.805,6.029,13.2987,4.60003,2470.156,2020-10-25T08:26:36Z
2020-10-25T06:28:44Z,42.805,6.029,13.2979,4.59991,2470.171,2020-10-25T08:29:39Z
2020-10-25T06:31:47Z,42.805,6.029,13.2987,4.59995,2470.203,2020-10-25T08:32:42Z
2020-10-25T06:34:51Z,42.805,6.029,13.2981,4.59990,2470.18,2020-10-25T08:35:45Z
2020-10-25T06:37:54Z,42.805,6.029,13.2986,4.59993,2470.156,2020-10-25T08:38:48Z
2020-10-25T06:40:57Z,42.805,6.029,13.2991,4.60016,2470.171,2020-10-25T08:41:52Z
2020-10-25T06:44:00Z,42.805,6.029,13.2991,4.60022,2470.156,2020-10-25T08:44:55Z
2020-10-25T06:47:03Z,42.805,6.029,13.2991,4.60024,2470.18,2020-10-25T08:47:58Z
2020-10-25T06:50:06Z,42.805,6.029,13.2983,4.60019,2470.18,2020-10-25T08:51:01Z
2020-10-25T06:53:09Z,42.805,6.029,13.2998,4.60020,2470.133,2020-10-25T08:54:04Z
2020-10-25T06:56:12Z,42.805,6.029,13.3008,4.60006,2470.133,2020-10-25T08:57:07Z
2020-10-25T06:59:16Z,42.805,6.029,13.3001,4.60027,2470.156,2020-10-25T09:00:10Z
2020-10-25T07:02:19Z,42.805,6.029,13.2991,4.60014,2470.156,2020-10-25T09:03:13Z
2020-10-25T07:05:22Z,42.805,6.029,13.2999,4.60008,2470.156,2020-10-25T09:06:17Z
2020-10-25T07:08:25Z,42.805,6.029,13.2979,4.59991,2470.18,2020-10-25T09:09:20Z
2020-10-25T07:11:28Z,42.805,6.029,13.2986,4.60002,2470.194,2020-10-25T09:12:23Z
2020-10-25T07:14:31Z,42.805,6.029,13.2990,4.60003,2470.171,2020-10-25T09:15:26Z
2020-10-25T07:17:34Z,42.805,6.029,13.3006,4.60012,2470.147,2020-10-25T09:18:29Z
2020-10-25T07:20:37Z,42.805,6.029,13.3008,4.60009,2470.171,2020-10-25T09:21:32Z
2020-10-25T07:23:41Z,42.805,6.029,13.2998,4.60024,2470.171,2020-10-25T09:24:35Z
2020-10-25T07:26:44Z,42.805,6.029,13.2999,4.60030,2470.133,2020-10-25T09:27:38Z
2020-10-25T07:29:47Z,42.805,6.029,13.2992,4.60035,2470.156,2020-10-25T09:30:42Z
2020-10-25T07:32:50Z,42.805,6.029,13.2991,4.60032,2470.156,2020-10-25T09:33:45Z
2020-10-25T07:35:53Z,42.805,6.029,13.2990,4.60015,2470.171,2020-10-25T09:36:48Z
2020-10-25T07:38:56Z,42.805,6.029,13.2996,4.60030,2470.156,2020-10-25T09:39:51Z
2020-10-25T07:41:59Z,42.805,6.029,13.3000,4.60024,2470.124,2020-10-25T09:42:54Z
2020-10-25T07:45:02Z,42.805,6.029,13.3002,4.60037,2470.194,2020-10-25T09:45:57Z
2020-10-25T07:48:06Z,42.805,6.029,13.3006,4.59995,2470.156,2020-10-25T09:49:00Z
2020-10-25T07:51:09Z,42.805,6.029,13.2997,4.60019,2470.18,2020-10-25T09:52:03Z
2020-10-25T07:54:12Z,42.805,6.029,13.2993,4.60038,2470.171,2020-10-25T09:55:07Z
2020-10-25T07:57:15Z,42.805,6.029,13.2996,4.60049,2470.156,2020-10-25T09:58:10Z
2020-10-25T08:00:18Z,42.805,6.029,13.3008,4.60039,2470.171,2020-10-25T10:01:13Z
2020-10-25T08:03:21Z,42.805,6.029,13.2986,4.60029,2470.156,2020-10-25T10:04:16Z
2020-10-25T08:06:24Z,42.805,6.029,13.3002,4.60038,2470.133,2020-10-25T10:07:19Z
2020-10-25T08:09:27Z,42.805,6.029,13.2997,4.60010,2470.171,2020-10-25T10:10:22Z
2020-10-25T08:12:30Z,42.805,6.029,13.2995,4.60019,2470.133,2020-10-25T10:13:25Z
2020-10-25T08:15:34Z,42.805,6.029,13.2998,4.60014,2470.18,2020-10-25T10:16:28Z
2020-10-25T08:18:37Z,42.805,6.029,13.2996,4.60029,2470.156,2020-10-25T10:19:32Z
2020-10-25T08:21:40Z,42.805,6.029,13.3000,4.60014,2470.171,2020-10-25T10:22:35Z
2020-10-25T08:24:43Z,42.805,6.029,13.3006,4.60050,2470.171,2020-10-25T10:25:38Z
2020-10-25T08:27:46Z,42.805,6.029,13.3014,4.60046,2470.11,2020-10-25T10:28:41Z
2020-10-25T08:30:49Z,42.805,6.029,13.3002,4.60033,2470.133,2020-10-25T10:31:44Z
2020-10-25T08:33:52Z,42.805,6.029,13.3021,4.60024,2470.133,2020-10-25T10:34:47Z
2020-10-25T08:36:56Z,42.805,6.029,13.3000,4.60021,2470.156,2020-10-25T10:37:50Z
2020-10-25T08:39:59Z,42.805,6.029,13.3012,4.60009,2470.156,2020-10-25T10:40:53Z
2020-10-25T08:43:02Z,42.805,6.029,13.3029,4.60019,2470.194,2020-10-25T10:43:57Z
2020-10-25T08:46:05Z,42.805,6.029,13.2991,4.60028,2470.133,2020-10-25T10:47:00Z
2020-10-25T08:49:08Z,42.805,6.029,13.3004,4.60041,2470.133,2020-10-25T10:50:03Z
2020-10-25T08:52:11Z,42.805,6.029,13.2991,4.60043,2470.133,2020-10-25T10:53:06Z
2020-10-25T08:55:14Z,42.805,6.029,13.2996,4.60055,2470.133,2020-10-25T10:56:09Z
2020-10-25T08:58:17Z,42.805,6.029,13.2994,4.60010,2470.194,2020-10-25T10:59:12Z
2020-10-25T09:01:20Z,42.805,6.029,13.2991,4.60025,2470.133,2020-10-25T11:02:15Z
2020-10-25T09:04:24Z,42.805,6.029,13.3004,4.60047,2470.156,2020-10-25T11:05:18Z
2020-10-25T09:07:27Z,42.805,6.029,13.3001,4.60036,2470.147,2020-10-25T11:08:22Z
2020-10-25T09:10:30Z,42.805,6.029,13.3021,4.60040,2470.156,2020-10-25T11:11:25Z
2020-10-25T09:13:33Z,42.805,6.029,13.2996,4.60046,2470.194,2020-10-25T11:14:28Z
2020-10-25T09:16:36Z,42.805,6.029,13.3007,4.60052,2470.11,2020-10-25T11:17:31Z
2020-10-25T09:19:39Z,42.805,6.029,13.3024,4.60072,2470.133,2020-10-25T11:20:34Z
2020-10-25T09:22:42Z,42.805,6.029,13.3012,4.60015,2470.203,2020-10-25T11:23:37Z
2020-10-25T09:25:46Z,42.805,6.029,13.3011,4.60036,2470.147,2020-10-25T11:26:40Z
2020-10-25T09:28:49Z,42.805,6.029,13.2993,4.60031,2470.18,2020-10-25T11:29:43Z
2020-10-25T09:31:52Z,42.805,6.029,13.3004,4.60035,2470.133,2020-10-25T11:32:47Z
2020-10-25T09:34:55Z,42.805,6.029,13.3005,4.60087,2470.156,2020-10-25T11:35:50Z
2020-10-25T09:37:58Z,42.805,6.029,13.3021,4.60017,2470.171,2020-10-25T11:38:53Z
2020-10-25T09:41:01Z,42.805,6.029,13.3015,4.60011,2470.171,2020-10-25T11:41:56Z
2020-10-25T09:44:04Z,42.805,6.029,13.3022,4.60049,2470.171,2020-10-25T11:44:59Z
2020-10-25T09:47:07Z,42.805,6.029,13.3004,4.60049,2470.194,2020-10-25T11:48:02Z
2020-10-25T09:50:11Z,42.805,6.029,13.3011,4.60028,2470.194,2020-10-25T11:51:05Z
2020-10-25T09:53:14Z,42.805,6.029,13.3022,4.60015,2470.156,2020-10-25T11:54:08Z
2020-10-25T09:56:17Z,42.805,6.029,13.3000,4.59991,2470.171,2020-10-25T11:57:12Z
2020-10-25T09:59:20Z,42.805,6.029,13.3011,4.59993,2470.156,2020-10-25T12:00:15Z
2020-10-25T10:02:23Z,42.805,6.029,13.2985,4.60009,2470.156,2020-10-25T12:03:18Z
2020-10-25T10:05:26Z,42.805,6.029,13.2996,4.60058,2470.171,2020-10-25T12:06:21Z
2020-10-25T10:08:29Z,42.805,6.029,13.3033,4.60035,2470.156,2020-10-25T12:09:24Z
2020-10-25T10:11:32Z,42.805,6.029,13.3011,4.60047,2470.18,2020-10-25T12:12:27Z
2020-10-25T10:14:36Z,42.805,6.029,13.3015,4.60062,2470.156,2020-10-25T12:15:30Z
2020-10-25T10:17:39Z,42.805,6.029,13.3009,4.60058,2470.171,2020-10-25T12:18:33Z
2020-10-25T10:20:42Z,42.805,6.029,13.3020,4.60041,2470.156,2020-10-25T12:21:37Z
2020-10-25T10:23:45Z,42.805,6.029,13.3006,4.60041,2470.194,2020-10-25T12:24:40Z
2020-10-25T10:26:48Z,42.805,6.029,13.2985,4.60015,2470.18,2020-10-25T12:27:43Z
2020-10-25T10:29:51Z,42.805,6.029,13.3002,4.60041,2470.156,2020-10-25T12:30:46Z
2020-10-25T10:32:54Z,42.805,6.029,13.3008,4.60024,2470.217,2020-10-25T12:33:49Z
2020-10-25T10:35:57Z,42.805,6.029,13.3025,4.60063,2470.18,2020-10-25T12:36:52Z
2020-10-25T10:39:01Z,42.805,6.029,13.3004,4.60035,2470.194,2020-10-25T12:39:55Z
2020-10-25T10:42:04Z,42.805,6.029,13.3024,4.60014,2470.18,2020-10-25T12:42:58Z
2020-10-25T10:45:07Z,42.805,6.029,13.3032,4.60063,2470.194,2020-10-25T12:46:02Z
2020-10-25T10:48:10Z,42.805,6.029,13.3028,4.60084,2470.18,2020-10-25T12:49:05Z
2020-10-25T10:51:13Z,42.805,6.029,13.3034,4.60046,2470.18,2020-10-25T12:52:08Z
2020-10-25T10:54:16Z,42.805,6.029,13.3027,4.60060,2470.203,2020-10-25T12:55:11Z
2020-10-25T10:57:19Z,42.805,6.029,13.2998,4.60056,2470.194,2020-10-25T12:58:14Z
2020-10-25T11:00:22Z,42.805,6.029,13.3006,4.60039,2470.217,2020-10-25T13:01:17Z
2020-10-25T11:03:26Z,42.805,6.029,13.2996,4.60067,2470.203,2020-10-25T13:04:20Z
2020-10-25T11:06:29Z,42.805,6.029,13.3004,4.60029,2470.203,2020-10-25T13:07:23Z
2020-10-25T11:09:32Z,42.805,6.029,13.2998,4.60039,2470.217,2020-10-25T13:10:27Z
2020-10-25T11:12:35Z,42.805,6.029,13.2997,4.60078,2470.217,2020-10-25T13:13:30Z
2020-10-25T11:15:38Z,42.805,6.029,13.2996,4.60080,2470.203,2020-10-25T13:16:33Z
2020-10-25T11:18:41Z,42.805,6.029,13.3013,4.60057,2470.203,2020-10-25T13:19:36Z
2020-10-25T11:21:44Z,42.805,6.029,13.3006,4.60029,2470.18,2020-10-25T13:22:39Z
2020-10-25T11:24:47Z,42.805,6.029,13.2992,4.60049,2470.194,2020-10-25T13:25:42Z
2020-10-25T11:27:51Z,42.805,6.029,13.2996,4.60041,2470.217,2020-10-25T13:28:45Z
2020-10-25T11:30:54Z,42.805,6.029,13.2996,4.60044,2470.203,2020-10-25T13:31:49Z
2020-10-25T11:33:57Z,42.805,6.029,13.3014,4.60052,2470.24,2020-10-25T13:34:52Z
2020-10-25T11:37:00Z,42.805,6.029,13.2996,4.60054,2470.203,2020-10-25T13:37:55Z
2020-10-25T11:40:03Z,42.805,6.029,13.2987,4.60034,2470.227,2020-10-25T13:40:58Z
2020-10-25T11:43:06Z,42.805,6.029,13.3004,4.60029,2470.227,2020-10-25T13:44:01Z
2020-10-25T11:46:09Z,42.805,6.029,13.3006,4.60020,2470.203,2020-10-25T13:47:04Z
2020-10-25T11:49:12Z,42.805,6.029,13.3014,4.60043,2470.18,2020-10-25T13:50:07Z
2020-10-25T11:52:16Z,42.805,6.029,13.3011,4.60042,2470.24,2020-10-25T13:53:10Z
2020-10-25T11:55:19Z,42.805,6.029,13.2996,4.60088,2470.227,2020-10-25T13:56:14Z
2020-10-25T11:58:22Z,42.805,6.029,13.3009,4.60074,2470.264,2020-10-25T13:59:17Z
2020-10-25T12:01:25Z,42.805,6.029,13.2996,4.60076,2470.203,2020-10-25T14:02:20Z
2020-10-25T12:04:28Z,42.805,6.029,13.3012,4.60039,2470.24,2020-10-25T14:05:23Z
2020-10-25T12:07:31Z,42.805,6.029,13.3014,4.60021,2470.217,2020-10-25T14:08:26Z
2020-10-25T12:10:34Z,42.805,6.029,13.2990,4.60044,2470.24,2020-10-25T14:11:29Z
2020-10-25T12:13:37Z,42.805,6.029,13.2994,4.60088,2470.227,2020-10-25T14:14:32Z
2020-10-25T12:16:41Z,42.805,6.029,13.2998,4.60041,2470.264,2020-10-25T14:17:35Z
2020-10-25T12:19:44Z,42.805,6.029,13.2990,4.60107,2470.24,2020-10-25T14:20:39Z
2020-10-25T12:22:47Z,42.805,6.029,13.2999,4.60074,2470.203,2020-10-25T14:23:42Z
2020-10-25T12:25:50Z,42.805,6.029,13.2992,4.60081,2470.227,2020-10-25T14:26:45Z
2020-10-25T12:28:53Z,42.805,6.029,13.3011,4.60060,2470.227,2020-10-25T14:29:48Z
2020-10-25T12:31:56Z,42.805,6.029,13.2998,4.60046,2470.203,2020-10-25T14:32:51Z
2020-10-25T12:34:59Z,42.805,6.029,13.2995,4.60045,2470.24,2020-10-25T14:35:54Z
2020-10-25T12:38:02Z,42.805,6.029,13.3006,4.60042,2470.24,2020-10-25T14:38:57Z
2020-10-25T12:41:06Z,42.805,6.029,13.3017,4.60042,2470.264,2020-10-25T14:42:00Z
2020-10-25T12:44:09Z,42.805,6.029,13.2996,4.60041,2470.24,2020-10-25T14:45:04Z
2020-10-25T12:47:12Z,42.805,6.029,13.3021,4.60057,2470.227,2020-10-25T14:48:07Z
2020-10-25T12:50:15Z,42.805,6.029,13.2996,4.60054,2470.25,2020-10-25T14:51:10Z
2020-10-25T12:53:18Z,42.805,6.029,13.3007,4.60049,2470.264,2020-10-25T14:54:13Z
2020-10-25T12:56:21Z,42.805,6.029,13.2990,4.60055,2470.25,2020-10-25T14:57:16Z
2020-10-25T12:59:24Z,42.805,6.029,13.2991,4.60043,2470.25,2020-10-25T15:00:19Z
2020-10-25T13:02:27Z,42.805,6.029,13.2997,4.60039,2470.25,2020-10-25T15:03:22Z
2020-10-25T13:05:31Z,42.805,6.029,13.2991,4.60060,2470.264,2020-10-25T15:06:25Z
2020-10-25T13:08:34Z,42.805,6.029,13.3019,4.60045,2470.25,2020-10-25T15:09:29Z
2020-10-25T13:11:37Z,42.805,6.029,13.3004,4.60077,2470.213,2020-10-25T15:12:32Z
2020-10-25T13:14:40Z,42.805,6.029,13.2995,4.60044,2470.264,2020-10-25T15:15:35Z
2020-10-25T13:17:43Z,42.805,6.029,13.2990,4.60048,2470.287,2020-10-25T15:18:38Z
2020-10-25T13:20:46Z,42.805,6.029,13.2993,4.60033,2470.25,2020-10-25T15:21:41Z
2020-10-25T13:23:49Z,42.805,6.029,13.2993,4.60029,2470.227,2020-10-25T15:24:44Z
2020-10-25T13:26:52Z,42.805,6.029,13.2993,4.60004,2470.25,2020-10-25T15:27:47Z
2020-10-25T13:29:56Z,42.805,6.029,13.2993,4.60026,2470.25,2020-10-25T15:30:50Z
2020-10-25T13:32:59Z,42.805,6.029,13.2986,4.60042,2470.264,2020-10-25T15:33:54Z
2020-10-25T13:36:02Z,42.805,6.029,13.2997,4.60046,2470.264,2020-10-25T15:36:57Z
2020-10-25T13:39:05Z,42.805,6.029,13.2996,4.60048,2470.273,2020-10-25T15:40:00Z
2020-10-25T13:42:08Z,42.805,6.029,13.2998,4.60046,2470.273,2020-10-25T15:43:03Z
2020-10-25T13:45:11Z,42.805,6.029,13.2990,4.60041,2470.273,2020-10-25T15:46:06Z
2020-10-25T13:48:14Z,42.805,6.029,13.2984,4.60026,2470.287,2020-10-25T15:49:09Z
2020-10-25T13:51:18Z,42.805,6.029,13.2998,4.60037,2470.287,2020-10-25T15:52:12Z
2020-10-25T13:54:21Z,42.805,6.029,13.2993,4.60009,2470.273,2020-10-25T15:55:15Z
2020-10-25T13:57:24Z,42.805,6.029,13.2997,4.60025,2470.273,2020-10-25T15:58:19Z
2020-10-25T14:00:27Z,42.805,6.029,13.2997,4.60033,2470.273,2020-10-25T16:01:22Z
2020-10-25T14:03:30Z,42.805,6.029,13.2988,4.60023,2470.31,2020-10-25T16:04:25Z
2020-10-25T14:06:33Z,42.805,6.029,13.2992,4.60029,2470.273,2020-10-25T16:07:28Z
2020-10-25T14:09:36Z,42.805,6.029,13.2988,4.60022,2470.273,2020-10-25T16:10:31Z
2020-10-25T14:12:39Z,42.805,6.029,13.2994,4.60014,2470.287,2020-10-25T16:13:34Z
2020-10-25T14:15:43Z,42.805,6.029,13.2992,4.60009,2470.273,2020-10-25T16:16:37Z
2020-10-25T14:18:46Z,42.805,6.029,13.2986,4.60024,2470.273,2020-10-25T16:19:41Z
2020-10-25T14:21:49Z,42.805,6.029,13.3000,4.60022,2470.32,2020-10-25T16:22:44Z
2020-10-25T14:24:52Z,42.805,6.029,13.2991,4.60014,2470.287,2020-10-25T16:25:47Z
2020-10-25T14:27:55Z,42.805,6.029,13.2986,4.60019,2470.31,2020-10-25T16:28:50Z
2020-10-25T14:30:58Z,42.805,6.029,13.2990,4.60016,2470.334,2020-10-25T16:31:53Z
2020-10-25T14:34:01Z,42.805,6.029,13.2986,4.60024,2470.287,2020-10-25T16:34:56Z
2020-10-25T14:37:04Z,42.805,6.029,13.2987,4.60006,2470.297,2020-10-25T16:37:59Z
2020-10-25T14:40:08Z,42.805,6.029,13.2989,4.59995,2470.31,2020-10-25T16:41:02Z
2020-10-25T14:43:11Z,42.805,6.029,13.2986,4.60021,2470.273,2020-10-25T16:44:06Z
2020-10-25T14:46:14Z,42.805,6.029,13.2990,4.60013,2470.31,2020-10-25T16:47:09Z
2020-10-25T14:49:17Z,42.805,6.029,13.2991,4.60001,2470.297,2020-10-25T16:50:12Z
2020-10-25T14:52:20Z,42.805,6.029,13.2984,4.60016,2470.297,2020-10-25T16:53:15Z
2020-10-25T14:55:23Z,42.805,6.029,13.2996,4.60019,2470.273,2020-10-25T16:56:18Z
2020-10-25T14:58:26Z,42.805,6.029,13.2990,4.60021,2470.297,2020-10-25T16:59:21Z
2020-10-25T15:01:29Z,42.805,6.029,13.2988,4.59995,2470.273,2020-10-25T17:02:24Z